Location: Miles
(41.4492°N, 81.6087°W)
Time: 23:43:04
(UTC+00:00)

Courier 1B - Pass Details

Date: 22 September 2024
Orbit: 962 x 1208 km, 28.3° (Epoch: 07 October)

Event Time Altitude Azimuth Distance (km) Brightness Sun altitude
Rises 17:50:01 0° 241° (WSW) 3,696 10.9 47.9°
Reaches altitude 10° 17:53:03 10° 229° (SW) 2,778 10.6 47.8°
Maximum altitude 17:58:32 27° 174° (S) 1,896 10.4 47.5°
Drops below altitude 10° 18:04:17 10° 120° (ESE) 2,923 10.2 47.2°
Sets 18:07:34 0° 109° (ESE) 3,924 10.7 47.0°
